Dewpoint
58 59 58 58 58 58 57 55 52 51 51 52 52 52 52 52 52 50 51 51 53 53 54 53 53 54 55 55 56 57 56 56 56 56 55 56 55 55
60 59 58 58 58 58 57 55 54 51 49 53 53 52 51 50 49 49 50 49 48 49 51 52 52 52 53 54 55 57 55 55 55 55 55 54 55 55
59 59 58 58 58 57 56 56 55 54 51 52 51 49 47 47 46 46 46 45 45 46 48 49 50 51 51 52 53 54 55 54 54 53 53 54 53 51
59 58 57 57 57 56 55 55 54 53 51 50 47 47 44 44 43 43 44 44 44 43 45 46 48 50 49 49 50 52 52 52 53 53 51 52 52 49
59 58 57 56 55 54 53 53 52 51 49 47 45 44 43 42 41 41 41 42 40 42 42 43 45 47 48 48 49 49 51 51 51 52 52 53 51 49
58 58 56 56 54 53 52 50 49 47 45 43 42 41 40 41 40 39 39 39 38 39 39 40 42 44 46 47 48 49 50 51 51 49 49 50 50 47
57 56 55 55 53 52 49 47 46 44 43 41 40 39 38 38 38 39 37 37 36 36 36 37 38 39 42 44 45 45 47 48 47 46 46 48 49 45
55 54 52 51 50 49 48 46 45 42 41 39 37 37 37 37 38 37 36 36 34 36 35 35 35 36 39 40 44 45 45 46 45 44 44 42 42 43
53 50 49 49 48 47 46 45 44 42 41 38 37 37 37 38 37 36 35 36 35 36 35 34 33 33 35 38 40 42 43 43 43 43 41 39 39 40
49 48 47 46 46 45 43 42 41 40 41 39 38 38 37 37 36 36 35 35 35 34 33 33 32 32 32 32 36 39 40 43 42 41 41 40 38 38
46 46 45 44 44 43 40 38 37 37 39 38 38 38 38 36 35 35 33 32 31 33 32 32 32 30 30 31 32 35 39 40 41 42 40 38 37 38
44 44 44 43 43 41 37 36 35 36 36 36 36 36 35 33 34 33 31 29 30 30 31 31 31 27 30 30 28 30 33 37 39 39 40 40 37 36
43 42 43 43 43 41 38 37 36 36 36 33 32 32 31 30 28 27 31 29 28 28 30 29 28 27 26 26 28 28 29 30 31 32 34 36 37 37
42 41 41 43 43 42 39 38 38 36 34 32 31 30 29 28 27 26 27 29 29 27 31 29 28 28 27 28 28 28 27 28 29 30 32 33 36 37
40 39 40 42 42 42 40 40 39 34 33 31 30 29 28 28 27 27 27 27 27 27 29 27 27 27 28 27 26 27 27 25 28 29 30 31 32 32
40 40 40 42 41 41 40 40 35 32 32 31 30 28 26 26 26 26 24 26 24 25 27 28 26 27 25 25 26 25 24 23 26 28 28 29 30 31
39 39 39 39 38 37 38 38 36 35 33 31 29 28 27 27 27 26 26 25 22 22 24 27 27 26 26 24 23 23 23 23 25 25 28 27 28 29
37 36 37 37 36 36 36 35 35 36 35 33 31 30 28 28 27 26 26 25 23 21 21 23 25 26 23 23 27 23 22 22 23 24 26 27 26 26
37 36 35 35 35 35 35 34 34 35 34 34 32 31 30 29 29 27 26 26 25 24 23 22 24 24 21 13 19 28 23 23 25 26 26 27 26 26
39 37 36 36 35 35 34 34 34 33 33 33 33 32 31 30 29 29 28 27 26 25 24 22 23 24 22 16 18 23 28 25 25 24 24 25 27 28
38 37 37 36 36 36 35 35 34 33 33 32 32 32 32 31 30 30 29 29 28 25 24 25 24 26 23 23 23 23 23 27 27 23 23 24 23 25
37 37 36 36 35 35 34 34 34 34 33 33 32 32 32 32 31 30 29 29 30 28 26 28 26 24 24 24 22 22 22 23 25 27 28 25 21 13
35 35 35 35 35 35 34 33 33 33 33 33 32 32 32 31 31 31 30 29 28 27 27 26 25 24 25 25 25 24 23 23 23 23 24 27 29 29
Wind_Speed
19 17 17 15 12 9 8 10 9 10 16 7 4 2 7 5 4 5 5 5 6 7 7 8 9 9 9 10 10 6 5 4 4 3 5 9 9 8
15 17 15 12 12 10 11 12 8 7 7 6 3 5 8 7 6 7 6 6 6 7 8 8 7 7 8 9 13 8 6 4 4 3 4 5 8 9
15 18 17 13 14 13 12 11 11 7 6 2 2 3 4 7 3 5 4 2 2 5 7 8 8 8 8 8 8 8 4 6 5 5 5 8 12 12
20 18 17 14 15 13 12 12 12 9 6 11 5 5 3 4 3 3 2 3 6 8 8 8 9 8 8 8 8 6 5 1 2 2 3 6 12 9
18 19 18 18 17 15 13 12 7 5 5 6 8 3 2 2 3 3 4 4 8 6 7 8 7 8 7 7 8 8 6 3 1 3 4 6 12 9
16 16 16 19 18 17 16 15 12 10 6 8 6 5 4 2 3 2 2 2 10 6 7 6 6 7 7 8 8 8 7 5 5 4 4 6 12 9
17 15 16 17 19 19 19 18 17 14 11 12 6 5 2 2 3 3 1 4 3 4 7 5 8 7 5 7 3 1 0 4 6 7 6 3 9 9
19 16 13 18 21 23 18 20 19 21 18 8 6 4 5 5 5 3 1 3 2 2 8 9 5 6 5 4 6 1 0 2 4 5 3 4 4 5
17 17 15 13 16 12 15 16 14 12 11 12 11 8 7 9 8 5 3 2 3 3 5 5 4 6 4 4 4 4 3 2 1 2 3 3 3 3
19 20 22 21 17 20 18 17 12 10 10 8 9 12 9 10 8 6 6 4 3 4 2 2 4 4 5 4 4 4 4 3 2 1 1 2 2 2
14 17 16 15 17 20 20 19 14 10 8 11 12 13 12 10 9 10 6 5 3 1 2 1 2 5 3 4 4 4 5 6 4 4 7 6 5 5
12 12 14 16 23 24 23 23 22 19 18 14 11 10 9 8 8 7 11 10 6 1 3 4 2 1 3 1 3 3 3 5 7 7 8 9 8 5
19 20 19 29 30 27 22 22 21 20 17 14 10 9 8 8 8 7 10 11 10 7 5 4 3 1 2 3 2 1 2 3 3 4 7 8 11 9
18 14 17 29 28 25 22 20 17 18 16 15 13 12 13 13 11 10 8 6 5 5 8 5 4 5 2 2 4 3 2 4 3 4 3 5 5 10
10 12 12 22 23 20 15 17 20 16 17 16 17 17 13 12 9 5 4 2 1 2 5 5 6 5 6 5 4 4 4 2 3 3 0 2 3 2
8 11 14 15 12 10 13 14 14 16 18 17 15 11 8 9 11 7 5 4 1 3 5 6 7 7 5 9 8 8 9 6 2 0 1 2 4 6
9 9 10 13 15 14 15 15 15 14 15 13 13 14 13 12 10 7 4 4 5 3 3 5 7 6 8 6 6 11 11 10 10 8 3 7 7 9
11 14 16 18 21 20 19 18 15 17 14 14 13 14 14 15 14 9 6 8 9 6 7 4 4 4 4 7 16 10 7 9 7 6 5 5 8 7
16 17 18 18 18 17 17 18 18 16 13 15 15 15 13 13 13 12 11 9 10 10 10 6 7 7 3 4 3 16 9 3 1 1 3 7 6 9
19 18 21 21 20 19 19 18 15 16 16 15 14 13 13 13 12 12 14 14 12 10 10 8 9 12 12 5 2 2 12 8 4 4 3 4 8 14
20 17 17 15 16 16 17 17 17 17 15 15 14 14 14 14 14 13 14 15 13 11 13 12 14 13 6 3 4 4 3 9 11 8 1 2 4 3
15 14 12 13 14 15 15 16 16 15 16 16 15 15 15 15 14 14 14 13 13 12 12 9 5 7 9 12 10 7 6 7 3 5 12 11 4 3
12 12 11 13 13 14 14 15 16 15 16 16 16 14 13 14 13 12 12 12 10 11 10 8 6 7 9 10 11 9 7 9 6 8 8 15 21 21
Wind_Direction
198 198 200 195 190 176 170 165 157 191 220 210 187 212 130 130 111 90 89 53 38 19 4 348 349 344 341 334 314 221 183 155 131 101 88 83 96 116
190 194 197 188 186 184 186 189 186 162 198 197 180 191 134 120 102 96 90 59 23 9 356 348 335 326 330 343 343 246 199 166 171 173 136 120 122 98
191 195 200 184 187 185 183 189 200 178 191 150 113 163 88 120 90 70 63 44 326 342 339 322 324 311 330 329 328 343 248 211 196 192 174 135 128 129
196 189 191 178 184 182 184 197 204 182 170 178 174 166 144 125 99 91 62 47 5 341 331 318 321 331 320 321 316 315 323 316 203 212 190 194 154 146
192 190 187 181 184 183 185 189 192 188 207 189 171 171 193 173 115 86 46 27 351 333 327 318 331 331 316 300 304 299 287 277 290 166 186 170 151 153
190 189 184 185 183 181 181 183 179 180 171 186 196 145 208 126 88 75 11 342 326 343 353 346 338 321 323 325 309 299 280 256 201 157 152 126 142 146
180 186 188 187 185 181 176 176 175 174 179 205 156 195 101 103 211 144 134 327 327 7 335 334 346 346 341 343 9 47 35 108 127 115 103 110 161 152
191 191 190 185 182 179 176 172 174 177 190 181 185 170 181 188 176 161 149 31 337 47 356 322 347 326 332 337 346 279 175 128 127 122 120 107 103 126
187 184 180 169 160 160 158 167 168 166 180 177 179 180 178 190 167 156 159 182 245 298 1 306 348 323 320 311 334 356 297 269 238 174 153 134 154 139
184 176 175 167 166 158 157 155 147 143 155 156 159 167 167 151 150 164 169 186 284 288 134 277 352 302 331 314 297 294 290 276 207 178 255 264 191 184
165 161 165 161 159 155 159 152 148 145 141 140 146 149 139 127 135 130 163 162 219 228 119 265 319 293 309 324 330 297 281 272 269 260 237 235 227 216
174 161 159 166 170 169 169 168 170 177 163 155 143 131 125 136 154 182 172 183 168 186 177 192 252 356 300 251 329 318 262 264 261 248 250 248 221 223
181 183 184 182 184 180 178 181 182 166 172 159 150 149 158 177 181 186 187 177 171 200 180 179 220 223 220 288 282 327 270 262 236 265 273 255 242 212
194 198 192 188 178 181 182 183 162 154 156 163 170 188 194 201 202 193 191 194 191 183 154 167 212 208 206 283 263 331 284 269 255 281 288 268 256 246
191 192 191 182 181 188 189 172 149 157 164 177 197 197 198 199 181 159 144 138 133 228 194 211 215 219 223 230 278 288 340 291 287 236 33 241 215 227
199 192 176 166 168 165 162 169 164 171 177 192 201 192 160 157 179 176 187 175 210 270 216 212 223 212 211 225 233 261 256 266 305 188 266 285 277 247
173 165 176 175 176 184 186 181 176 182 187 192 186 179 183 180 182 175 176 179 217 181 191 212 218 232 240 224 254 239 259 262 256 256 240 264 265 254
184 188 196 196 193 192 192 191 191 191 189 190 192 185 188 191 188 181 178 202 224 235 234 207 195 217 290 259 221 242 252 264 266 245 219 243 278 268
210 200 201 203 200 192 192 192 195 195 176 191 191 193 192 194 192 202 204 212 229 237 240 212 204 202 234 268 287 211 227 239 273 309 227 228 255 266
217 213 209 203 198 190 188 190 188 181 189 191 192 194 196 195 197 203 205 213 219 223 231 225 218 208 207 227 269 248 214 237 236 252 230 250 259 268
226 221 217 206 195 188 188 186 184 185 186 186 191 193 198 196 205 205 208 212 216 217 228 233 236 221 196 150 269 268 286 239 228 237 205 247 276 301
238 225 204 191 185 186 183 182 180 180 179 188 195 197 198 198 204 202 202 205 211 210 220 219 195 169 190 205 238 251 279 296 302 266 230 230 214 268
242 229 199 197 194 190 183 186 184 181 184 189 192 194 190 199 200 197 198 203 203 210 217 221 203 189 209 213 228 243 261 297 305 299 276 242 241 246